Regional Weather Roundup
Issued by NWS

Home | Current Version | Previous Version | Text Only | Print | Product List | Glossary Off
Versions: 1 2 3 4 5 6 7 8 9 10 11 12 13 14 15 16 17 18 19 20 21 22 23 24 25 26 27

000
ASUS45 KBOI 231510
RWRID

IDAHO REGIONAL WEATHER ROUNDUP
NATIONAL WEATHER SERVICE BOISE ID
900 AM MDT MON OCT 23 2017

NOTE: "FAIR" INDICATES FEW OR NO CLOUDS BELOW 12000 FEET
WITH NO SIGNIFICANT WEATHER AND/OR OBSTRUCTIONS TO VISIBILITY

IDZ012-014-231600-
SOUTHWEST IDAHO


CITY           SKY/WX    TMP DP  RH WIND       PRES   REMARKS
BOISE          CLEAR     40  39  97 S6        30.62R
CALDWELL       CLEAR     40  39  97 W6        30.64
MOUNTAIN HOME  CLEAR     42  42 100 SW6       30.61R
$$

IDZ016-017-231600-
SOUTHCENTRAL IDAHO


CITY           SKY/WX    TMP DP  RH WIND       PRES   REMARKS
BURLEY         MOCLDY    46  43  89 W7        30.58R
JEROME         CLEAR     44  44 100 SW10      30.60R
TWIN FALLS     CLEAR     44  42  93 SW12      30.60R
$$

IDZ019>023-231600-
SOUTHEAST IDAHO


CITY           SKY/WX    TMP DP  RH WIND       PRES   REMARKS
IDAHO FALLS    PTSUNNY   35  35 100 CALM      30.58R FOG
POCATELLO      CLOUDY    44  42  93 SW12      30.58R
REXBURG        CLOUDY    37  37 100 SW6       30.57R FOG     WCI  32
$$

IDZ006-010-011-018-031-032-231600-
CENTRAL IDAHO MOUNTAINS


CITY           SKY/WX    TMP DP  RH WIND       PRES   REMARKS
MCCALL         FOG       30  29  96 CALM      30.60R VSB 3/4
HAILEY         PTCLDY    36  27  69 W7        30.60R WCI  30
STANLEY          N/A     29  26  89 CALM      30.63R
SALMON         CLOUDY    36  28  73 S3        30.60R
CHALLIS        CLEAR     32  26  78 SE5       30.59R WCI  27
$$

IDZ002-004-006-007-026-231600-
NORTHERN IDAHO


CITY           SKY/WX    TMP DP  RH WIND       PRES   REMARKS
LEWISTON       CLEAR     44  39  82 CALM      30.64R
LOWELL           N/A     43  43 100 CALM      30.68R
COEUR D`ALENE  CLEAR     37  35  92 S6        30.61R WCI  32
MULLAN PASS    CLEAR     30  26  85 SW3       30.55R
$$




USA.gov is the U.S. government's official web portal to all federal, state and local government web resources and services.